Weather in Colombo

Sri Lanka     6˚56′15″N   79˚51′24″E
temp.,
°C
wind,
m/s
gust,
m/s
humid.,
%
clouds,
%
prec.,
mm/h
press.,
hPa
HPBL,
m
1 december, tue
tue123:30+27˚nne10137892 0.0 1012731
02:30+27˚nne101281100 0.0 1009765
05:30+27˚nne101282100 0.0 1010785
08:30+27˚nne9118246 0.0 1013824
11:30+28˚n897873 0.0 1012840
14:30+28˚n9107876 0.0 10081019
17:30+28˚nne8107988 0.1 1008904
20:30+27˚nne101382100 0.1 1011967
2 december, wed
wed223:30+26˚nne91284100 0.1 1010899
02:30+26˚n81084100 1.6 1007848
05:30+26˚n7985100 6.1 1008726
08:30+26˚nnw91188100 9.8 1010740
11:30+26˚nnw121488100 17.5 1009856
14:30+26˚nw111284100 1.6 1006801
17:30+27˚nw101185100 3.2 1007881
20:30+27˚nw111284100 1.4 1009826
3 december, thu
thu323:30+27˚nw8985100 2.4 1008710
02:30+27˚wnw7883100 2.3 1006717
05:30+27˚wnw568281 5.1 1007670
08:30+27˚wnw6782100 3.2 1010695
11:30+28˚wnw7879100 4.1 1009857
14:30+28˚wnw788094 0.7 1006829
17:30+28˚wnw897897 2.1 1007831
20:30+28˚wnw5674100 0.0 1010888
4 december, fri
fri423:30+27˚w1277100 1.3 1009195
02:30+27˚s237897 1.6 1007348
05:30+27˚s447866 2.2 1007678
08:30+27˚s347948 0.0 1009549
11:30+28˚sw447759 0.1 1008687
14:30+28˚wsw567782 0.2 1005645
17:30+28˚wnw347591 3.1 1006477
20:30+28˚nnw2276100 3.4 1009251
5 december, sat
sat523:30+27˚e3380100 9.4 1009109
02:30+27˚ese3380100 3.6 1007127
05:30+27˚se338297 4.4 1008218
08:30+27˚ese338295 0.8 1010194
11:30+27˚sw127981 0.8 1009214
14:30+28˚wsw447498 0.0 1006612
17:30+29˚wsw337299 0.0 1007649
20:30+29˚w2273100 0.1 1009595